Billings, MT

2:23 AM MDT on May 22, 2018 (GMT -0600)
Billings Logan International

Weather History for KBIL - September, 2014

Change the Weather History Date:

Sunday, September 7, 2014

  Actual Average Record
Temperature  
Mean Temperature 69 °F 64 °F  
Max Temperature 87 °F 78 °F 97 °F (1998)
Min Temperature 50 °F 51 °F 34 °F (1962)
Degree Days  
Heating Degree Days 0 4  
Month to date heating degree days 22 21  
Since 1 July heating degree days 70 58  
Cooling Degree Days 4 3  
Month to date cooling degree days 8 23  
Year to date cooling degree days 560 605  
Growing Degree Days 18 (Base 50)    
Moisture  
Dew Point 35 °F    
Average Humidity 37    
Maximum Humidity 64    
Minimum Humidity 9    
Precipitation  
Precipitation 0.00 in 0.04 in 1.53 in (1941)
Month to date precipitation T 0.26  
Year to date precipitation 11.89 10.31  
Snow  
Snow 0.00 in 0.10 in 2.00 in (1962)
Month to date snowfall 0.0 0.1  
Since 1 July snowfall 0.0 0.1  
Since 1 September snowfall 0.0 0.1  
Snow Depth 0.00 in    
Sea Level Pressure  
Sea Level Pressure 29.85 in    
Wind  
Wind Speed 11 mph (WSW)    
Max Wind Speed 26 mph    
Max Gust Speed 33 mph    
Visibility 10 miles    
Events      
T = Trace of Precipitation, MM = Missing Value Source: NWS Daily Summary

Daily Weather History Graph

Daily Weather History Graph

Search for Another Location

Airport or City:

Astronomy

Sep. 07, 2014 Rise Set
Actual Time 6:42 AM MDT 7:40 PM MDT
Civil Twilight 6:12 AM MDT 8:11 PM MDT
Nautical Twilight 5:35 AM MDT 8:47 PM MDT
Astronomical Twilight 4:57 AM MDT 9:25 PM MDT
Moon 6:43 PM MDT (9/7) 4:55 AM MDT (9/7)
Length of Visible Light 13h 58m
Length of Day
12h 58m
Waxing Gibbous, 97% of the Moon is Illuminated
Sep 7
Waxing Gibbous
Sep 8
Full
Sep 15
Last Quarter
Sep 24
New
Oct 1
First Quarter

Hourly Weather History & Observations

Time (MDT) Temp. Dew Point Humidity Pressure Visibility Wind Dir Wind Speed Gust Speed Precip Events Conditions
12:53 AM 57.0 °F 39.0 °F 51% 29.99 in 10.0 mi NW 4.6 mph - N/A   Clear
1:53 AM 61.0 °F 39.0 °F 44% 29.95 in 10.0 mi Calm Calm - N/A   Clear
2:53 AM 55.9 °F 39.0 °F 53% 29.95 in 10.0 mi WSW 4.6 mph - N/A   Clear
3:53 AM 53.1 °F 39.9 °F 61% 29.95 in 10.0 mi WNW 6.9 mph - N/A   Clear
4:53 AM 53.1 °F 39.9 °F 61% 29.94 in 10.0 mi SW 6.9 mph - N/A   Clear
5:53 AM 54.0 °F 39.0 °F 57% 29.92 in 10.0 mi SW 6.9 mph - N/A   Partly Cloudy
6:53 AM 52.0 °F 39.9 °F 63% 29.92 in 10.0 mi SW 12.7 mph - N/A   Clear
7:53 AM 52.0 °F 39.9 °F 63% 29.93 in 10.0 mi SSW 6.9 mph - N/A   Clear
8:53 AM 54.0 °F 41.0 °F 62% 29.92 in 10.0 mi SW 9.2 mph - N/A   Clear
9:53 AM 60.1 °F 44.1 °F 55% 29.90 in 10.0 mi SSW 6.9 mph - N/A   Clear
10:53 AM 66.9 °F 45.0 °F 45% 29.88 in 10.0 mi SSW 10.4 mph - N/A   Clear
11:53 AM 73.9 °F 46.0 °F 37% 29.84 in 10.0 mi SW 11.5 mph - N/A   Partly Cloudy
12:53 PM 81.0 °F 45.0 °F 28% 29.82 in 10.0 mi SW 12.7 mph - N/A   Partly Cloudy
1:53 PM 84.9 °F 33.1 °F 16% 29.78 in 10.0 mi WSW 15.0 mph 25.3 mph N/A   Partly Cloudy
2:53 PM 86.0 °F 32.0 °F 14% 29.85 in 10.0 mi WSW 13.8 mph 23.0 mph N/A   Partly Cloudy
3:53 PM 86.0 °F 28.9 °F 13% 29.75 in 10.0 mi WNW 17.3 mph 24.2 mph N/A   Partly Cloudy
4:53 PM 86.0 °F 23.0 °F 10% 29.73 in 10.0 mi WNW 26.5 mph 33.4 mph N/A   Partly Cloudy
5:53 PM 84.9 °F 19.9 °F 9% 29.73 in 10.0 mi NW 20.7 mph 29.9 mph N/A   Partly Cloudy
6:53 PM 81.0 °F 24.1 °F 12% 29.74 in 10.0 mi NNW 13.8 mph - N/A   Partly Cloudy
7:53 PM 71.1 °F 26.1 °F 19% 29.76 in 10.0 mi NW 4.6 mph - N/A   Partly Cloudy
8:53 PM 68.0 °F 30.2 °F 24% 29.83 in 10.0 mi NW 11.5 mph - N/A   Clear
9:53 PM 68.0 °F 30.2 °F 24% 29.85 in 10.0 mi SSW 10.4 mph - N/A   Clear
10:53 PM 69.1 °F 27.0 °F 21% 29.77 in 10.0 mi SW 9.2 mph - N/A   Clear
11:53 PM 61.0 °F 32.0 °F 34% 29.78 in 10.0 mi SSW 10.4 mph - N/A   Clear